FENGYUN 1C DEB, 31844

Orbit data source: Space-Track

FENGYUN 1C DEB, 31844 is space debris in SSO originally from a launch on Mon, 10 May 1999 UTC launched from the Taiyaun Space Center, China (TSC). Fengyun 1C debris stems from the Chinese weather satellite Fengyun-1C, which was intentionally destroyed by a Chinese anti-satellite missile in 2007. This event dramatically increased the amount of space debris, with thousands of trackable fragments posing hazards to satellites and human spaceflight. The Fengyun 1C debris cloud has become a focal point in discussions about space sustainability and the need for international regulations to prevent the creation of new debris.

Loading next visibility...
Identifier
31844, 1999-025CJJ
Orbit
SSO
Country
Flag of CNCN / PRC
Related business
Manufacturer
Unknown
Mission
Spacecraft
Bus & Motor
Unknown
Mass
Unknown
Launch date (UTC)
1999-05-10 (27 years ago)
Launch vehicle
Unknown
Launch site
Taiyaun Space Center, China (TSC)
Object type
Payload
Rocket body
Debris
Shape & HBR
Unknown shape, 0.1 m
Radar Cross Section
Small (<0.1 m²)

Expand to show TLE details & history
Last TLE update: 1 day ago

TLE from 1 day ago
0 FENGYUN 1C DEB
1 31844U 99025CJJ 26165.33543453  .00001215  00000-0  56361-3 0  9998
2 31844 100.3005 188.9924 0101771 207.7431 151.8290 14.20410931979380
Epoch: 2026-06-14T08:03Z
TLE epoch observation values (Epoch: 2026-06-14T08:03:01.543Z)
Latitude
0.00004°
Longitude
165.59832°
Altitude
891.614 km
Speed
7.373 km/s
True Right ascension
12h 35m 58s
True Declination
0° 00' 00"
Sunlit
Object was in daylight at epoch
Visualization orbit readout
Latitude
Unknown
Longitude
Unknown
Altitude
Unknown
Speed
Unknown
Apparent Right ascension
Unknown
Apparent Declination
Unknown
Sunlit
N/A
Visualization observer readout
Local Sidereal Time
02:35:34
Azimuth
Unknown
Elevation
Unknown
Doppler factor
Unknown
Orbital elements
Apogee altitude
894.472 km
Perigee altitude
747.935 km
Semi-major axis
7,199.341 km
Eccentricity
0.01018
Inclination
100.3005°
RAAN
188.9924°
Arg. of periapsis
207.7431°
True anomaly
152.37346°
Mean anomaly
151.829°
Eccentric anomaly
152.10184°
Mean motion
3.55307 °/min
Orbital period
101.32 mins
BSTAR
0.00056361
Loading maneuver chart data...
Computing Atmospheric mass density...
Loading historical data...
Loading historical data...
Loading historical data...
Loading historical data...
Loading historical data...
Loading historical data...
Loading historical data...

Documentation

Showing up to 5 results
|